Regional Weather Roundup
Issued by NWS

Home | Current Version | Previous Version | Text Only | Print | Product List | Glossary Off
Versions: 1 2 3 4 5 6 7 8 9 10 11 12 13 14 15 16 17 18 19 20 21 22 23 24 25 26 27

000
ASUS45 KBOU 231507
RWRCO

WEATHER ROUNDUP FOR COLORADO
NATIONAL WEATHER SERVICE DENVER/BOULDER CO
900 AM MDT SUN JUL 23 2017

NOTE: "FAIR" INDICATES FEW OR NO CLOUDS BELOW 12000 FEET WITH NO
SIGNIFICANT WEATHER AND/OR OBSTRUCTIONS TO VISIBILITY.

COZ001>005-013-030-031-231600-
...NORTHWEST COLORADO...

CITY           SKY/WX    TMP DP  RH WIND       PRES   REMARKS
CRAIG          FAIR      66  43  43 CALM      30.28F
HAYDEN         FAIR      66  39  37 SE9       30.30S
MEEKER         FAIR      65  40  39 CALM      30.29F
RABBIT EARS PA FAIR      59  37  44 MISG      30.60R
STEAMBOAT SPGS FAIR      60  40  48 CALM      30.33F
WALDEN         FAIR      55  37  50 CALM      30.46S
$$

COZ006>008-011-231600-
...WEST CENTRAL VALLEYS...

CITY           SKY/WX    TMP DP  RH WIND       PRES   REMARKS
GRAND JUNCTION FAIR      77  48  35 E15       30.18R
MONTROSE       FAIR      72  46  39 CALM      30.26F
EAGLE          SUNNY     61  45  55 CALM      30.37F
RIFLE          FAIR      68  46  45 N5        30.24F
DELTA          FAIR      73  49  42 S5        30.23S
NUCLA          FAIR      72  45  37 CALM      30.30F
$$

COZ017>023-064>068-231600-
...SOUTHWEST COLORADO...

CITY           SKY/WX    TMP DP  RH WIND       PRES   REMARKS
DURANGO        FAIR      66  53  63 CALM      30.31S
CORTEZ         FAIR      75  55  49 CALM      30.25R
PAGOSA SPRINGS FAIR      66  48  51 CALM      30.39S
TELLURIDE      FAIR      64  46  51 CALM      30.50S
WOLF CREEK PAS NOT AVBL
$$

COZ009-010-012-014-032>034-037-058>063-231600-
...CENTRAL COLORADO...

CITY           SKY/WX    TMP DP  RH WIND       PRES   REMARKS
ASPEN          FAIR      67  44  43 VRB3      30.39S
BUENA VISTA    FAIR      62  46  55 N3        30.44S
COPPER MTN     FAIR      59  32  36 CALM      30.72S
BERTHOUD PASS  FAIR      48  34  57 S5        30.75S
COTTONWOOD PAS FAIR      64  46  52 E7        30.57R
GUNNISON       FAIR      55  47  74 CALM      30.45S
KREMMLING      FAIR      63  43  48 CALM      30.42F
LEADVILLE      FAIR      56  41  57 CALM      30.55S
MONARCH PASS   CLOUDY    54  43  66 E15       30.80S
SALIDA         FAIR      61  51  69 CALM      30.49F
SUNLIGHT       FAIR      55  36  47 NE3       30.64R
WILKERSON PASS FAIR      55  41  58 CALM      30.70R
$$

COZ069>075-231600-
...SAN LUIS VALLEY/SANGRE DE CRISTO MOUNTAINS...

CITY           SKY/WX    TMP DP  RH WIND       PRES   REMARKS
ALAMOSA        FAIR      63  50  62 CALM      30.40R
DEL NORTE      FAIR      64  46  52 N3        30.44S
LA VETA PASS   NOT AVBL
SAGUACHE         N/A    N/A N/A N/A MISG        N/A
$$

COZ035-036-038>040-231600-
...NORTHERN COLORADO FRONT RANGE...

CITY           SKY/WX    TMP DP  RH WIND       PRES   REMARKS
DENVER INTL AP FAIR      75  51  43 W6        30.23R
DMNS CITY PARK   N/A     75  52  43 SE8       30.23S
AURORA         MOSUNNY   74  51  45 CALM      30.25S
FRONT RANGE AP FAIR      77  52  41 W7        30.25R
ERIE MUNI ARPT FAIR      73  49  42 CALM      30.22S
BOULDER MUN AP FAIR      73  52  46 E5        30.22S
CENTENNIAL     FAIR      73  51  46 S3        30.26S
BROOMFIELD     FAIR      73  46  38 SE5       30.26R
FORT COLLINS   FAIR      71  55  56 N5        30.22R
LONGMONT       FAIR      76  53  44 CALM      30.23R
$$

COZ041-046-047-076>085-087-088-231600-
...PIKES PEAK/PALMER DIVIDE AND SOUTHERN FOOTHILLS...

CITY           SKY/WX    TMP DP  RH WIND       PRES   REMARKS
COLO. SPRINGS  FAIR      73  54  51 NW5       30.30S
A. F. ACADEMY  FAIR      68  52  56 CALM      30.32S
SCHRIEVER AFB  FAIR      71  51  48 S3        30.31R
CHEYENNE MTN   FAIR      70  54  57 CALM      30.30R
ELLICOTT       FAIR     N/A N/A N/A VRB3      30.29R
FALCON           N/A     72  51  47 CALM      30.35S
FORT CARSON    FAIR      71  55  56 N6        30.27S
LIMON          FAIR      73  55  53 W7        30.24S
MONUMENT HILL  FAIR      70  50  49 CALM      30.37R
CANON CITY     SUNNY     73  55  53 MISG      30.25S
WALSENBURG     FAIR      73  54  49 CALM      30.29S
TRINIDAD       FAIR      74  51  44 VRB5      30.27R
$$

COZ042>045-048>051-090-091-231600-
...NORTHEAST COLORADO...

CITY           SKY/WX    TMP DP  RH WIND       PRES   REMARKS
GREELEY ARPT   FAIR      70  55  59 NW5       30.20S
AKRON          FAIR      78  53  41 SW10      30.19S
BURLINGTON     FAIR      78  58  49 NW7       30.16S
WRAY           NOT AVBL
YUMA           FAIR      77  46  33 W5        30.15S
STERLING       FAIR      72  57  60 S3        30.15S
HOLYOKE        FAIR      79  57  47 SW3       30.14S
FORT MORGAN    FAIR      74  52  46 S3        30.19S
$$

COZ086-089-092>099-231600-
...SOUTHEAST COLORADO...

CITY           SKY/WX    TMP DP  RH WIND       PRES   REMARKS
PUEBLO         FAIR      76  53  44 NW9       30.20S
LA JUNTA       FAIR      76  55  48 NW7       30.16S
LAMAR          FAIR      76  61  59 VRB3      30.11S
SPRINGFIELD      N/A     79  58  48 NW15      30.14R
$$




USA.gov is the U.S. government's official web portal to all federal, state and local government web resources and services.